Location: Niedergestelen
(46.3129°N, 7.7822°E)
Time: 05:45:59
(UTC+00:00)

CZ-2D R/B - Pass Details

Date: 01 December 2020
Orbit: 521 x 538 km, 97.4° (Epoch: 18 January)

Event Time Altitude Azimuth Distance (km) Brightness Sun altitude
Rises 17:49:50 0° 170° (S) 2,647 6.8 -21.0°
Reaches altitude 10° 17:51:56 10° 172° (S) 1,766 5.9 -21.4°
Maximum altitude 17:55:44 74° 258° (WSW) 555 3.3 -22.0°
Drops below altitude 10° 17:59:36 10° 344° (NNW) 1,792 6.0 -22.7°
Sets 18:01:44 0° 346° (NNW) 2,691 6.9 -23.0°
